[Date Prev][Date Next][Thread Prev][Thread Next] - [Date Index][Thread Index][Author Index]
2 Line ISS Keps 8-8
- Subject: [sarex] 2 Line ISS Keps 8-8
- From: "Dave Larsen PhD" <doc@xxxxxxxxxxx>
- Date: Fri, 8 Aug 2003 06:31:33 -0700
ISS
1 25544U 98067A 03220.18821686 .00016491 00000-0 19797-3 0 3099
2 25544 51.6318 118.5316 0008170 99.5348 59.2878 15.61006634269126
----
Via the sarex mailing list at AMSAT.ORG courtesy of AMSAT-NA.
To unsubscribe, send "unsubscribe sarex" to Majordomo@amsat.org
AMSAT Home